カタログに戻る

DELTA 1 DEB

運用中UNKNOWN
NORAD 10714·DEBRIS·🇺🇸 United States

打ち上げ Jul 29, 1976 から Vandenberg Space Force Base

Loading…

次のパス (今後24時間)

TLE

最新Source: Space-Track

元期: Sep 13, 2026, 15:15 UTC

1 10714U 76077AK  26256.63600785  .00000588  00000-0  90893-2 0  9998
2 10714 103.3724 149.0572 0566989 206.5782 179.1143 11.54584439103257

AllMySatでDELTA 1 DEBをリアルタイム追跡

Download on the App Store